This is the latest recevied weather packets stored in our database for station/object KQ4PPF. If no packets are shown the sender has not sent any weather packets the latest 10 day(s).
| Time | Temp. | Humidity | Pressure | Rain* | Wind** | Luminosity | Snow |
|---|---|---|---|---|---|---|---|
| 1778166954 | 13.33° C | 96% | 1013.4 hPa | 0 mm | - | 111 W/m² | - |
| 1778166651 | 13.33° C | 97% | 1013.6 hPa | 0 mm | - | 84 W/m² | - |
| 1778166349 | 12.78° C | 97% | 1013.2 hPa | 0 mm | - | 110 W/m² | - |
| 1778166039 | 12.78° C | 97% | 1013.6 hPa | 0 mm | - | 76 W/m² | - |
| 1778165734 | 12.78° C | 97% | 1013.5 hPa | 0 mm | - | 78 W/m² | - |
| 1778165432 | 12.78° C | 97% | 1013.5 hPa | 0 mm | - | 57 W/m² | - |
| 1778165128 | 12.78° C | 97% | 1013.6 hPa | 0 mm | - | 58 W/m² | - |
| 1778164826 | 13.33° C | 98% | 1013.4 hPa | 0 mm | - | 57 W/m² | - |
| 1778164523 | 12.78° C | 98% | 1013.4 hPa | 0 mm | - | 76 W/m² | - |
| 1778164216 | 12.78° C | 98% | 1013.3 hPa | 0 mm | - | 85 W/m² | - |
| 1778163910 | 12.78° C | 98% | 1013.6 hPa | 0 mm | - | 95 W/m² | - |
| 1778163607 | 12.78° C | 99% | 1013.3 hPa | 0 mm | - | 90 W/m² | - |
| 1778163303 | 12.78° C | 99% | 1013.3 hPa | 0 mm | - | 102 W/m² | - |
| 1778163000 | 12.78° C | 99% | 1013.4 hPa | 0 mm | - | 94 W/m² | - |
| 1778162696 | 12.78° C | 99% | 1013.4 hPa | 0 mm | - | 78 W/m² | - |
| 1778162394 | 12.78° C | 99% | 1013.3 hPa | 0 mm | - | 42 W/m² | - |
| 1778162090 | 12.78° C | 99% | 1013.3 hPa | 0 mm | - | 56 W/m² | - |
| 1778161788 | 12.78° C | 99% | 1013.1 hPa | 0 mm | - | 44 W/m² | - |
| 1778161484 | 12.78° C | 99% | 1013 hPa | 0 mm | - | 57 W/m² | - |
| 1778161180 | 12.78° C | 99% | 1012.9 hPa | 0 mm | - | 51 W/m² | - |
| 1778160876 | 13.33° C | 99% | 1012.9 hPa | 0 mm | - | 52 W/m² | - |
| 1778160575 | 12.78° C | 99% | 1013 hPa | 0 mm | - | 55 W/m² | - |
| 1778160271 | 12.78° C | 99% | 1012.7 hPa | 0 mm | - | 55 W/m² | - |
| 1778159967 | 12.78° C | 99% | 1012.8 hPa | 0 mm | - | 88 W/m² | - |
| 1778159664 | 12.78° C | 99% | 1012.8 hPa | 0 mm | - | 61 W/m² | - |
* Rain latest hour (hover to see other rain measurements)
** Current wind speed in m/s (hover to see current wind gust speed)